User: anonymous   Login
Location: Hopkins Observatory
(42.6965°N, 73.1843°W)
Time: 03:21:13
(UTC-05:00)
Language:

RS-15 - Orbit

View from above orbital plane
View from above orbital plane
View from above satellite
View from above satellite

Ground track
Ground track

The orbit data is extracted from the following two-line orbital elements,

1 23439U 94085A   15024.50648568 -.00000033  00000-0  28060-3 0  7591
2 23439 064.8143 193.8251 0149244 039.6274 321.5447 11.27562920826954
Epoch (UTC): 24 January 2015 12:09:20
Eccentricity: 0.0149244
inclination: 64.8143°
perigee height: 1897 km
apogee height: 2148 km
right ascension of ascending node: 193.8251°
argument of perigee: 39.6274°
revolutions per day: 11.27562920
mean anomaly at epoch: 321.5447°
orbit number at epoch: 82695

The dashed part of the orbit path shows where the satellite is in the earth's shadow,  

DLR